sat.trackr.live / text

‹ back to catalog

STARLINK-5896

NORAD 55930 · 2023-037S

PAYLOAD ACTIVE UNKNOWN

§ Identity

Operator
Country
US
Launch date
2023-03-17
Launch site
AFWTR
Launch vehicle
Mass (kg)
RCS (m²)

Purposes: comms

External: N2YO · Heavens-Above · Gunter

§ Orbital elements

Epoch: 2026-05-25T03:26:44.702880Z

Period
96.11 min
Inclination
70.0015°
Eccentricity
0.0003392
Mean motion
14.98336559 rev/d
Perigee alt
569.7 km
Apogee alt
574.4 km
Semi-major
6,950.2 km
B*
5.1175e-4
RAAN
91.6389°
Arg perigee
268.4477°
Mean anomaly
91.6294°
Rev number
17,543

§ Raw data

STARLINK-58961 55930U 23037S   26145.14357295  .00006019  00000+0  51175-3 0  99982 55930  70.0015  91.6389 0003392 268.4477  91.6294 14.98336559175432

JSON: /api/v1/satellites/55930 · /tle

For live sub-satellite position, see the globe view (requires WebGL).

§ Visibility from observer

Set your observer location to see the next 7 days of passes ≥ 10°. The values pass through the URL so the page stays shareable.

No JS? Fill the form by hand. The geolocation button needs JavaScript.